Total_Precipitation_Accumulation
0.56 0.54 0.57 0.63 0.66 0.70 0.72 0.72 0.71 0.77 0.80 0.83 0.97 1.20 1.48 1.60 1.69 1.59 1.39 1.34 1.48 1.77 2.02 1.97 2.05 2.13 2.08 2.05 2.04 2.28 2.24 1.98 1.79 1.89 1.74 1.58 1.46 1.65 1.72 1.71 1.83 1.85 1.92
0.47 0.44 0.47 0.52 0.55 0.58 0.64 0.68 0.68 0.74 0.76 0.79 0.97 1.15 1.32 1.34 1.49 1.59 1.55 1.47 1.46 1.64 1.81 2.09 2.23 2.21 2.35 2.47 2.44 2.82 2.97 2.47 2.03 2.17 2.45 2.18 1.99 1.81 1.68 1.74 1.84 2.01 2.20
0.48 0.46 0.44 0.48 0.50 0.49 0.49 0.53 0.57 0.65 0.75 0.86 1.07 1.31 1.55 1.64 1.64 1.54 1.61 1.62 1.53 1.59 1.73 1.88 2.03 2.08 2.23 2.42 2.54 2.87 3.43 3.19 2.52 2.34 2.79 2.60 2.41 2.27 1.94 1.77 1.78 1.89 2.17
0.46 0.55 0.51 0.50 0.47 0.47 0.48 0.51 0.60 0.73 0.91 1.09 1.30 1.54 1.74 1.79 1.66 1.65 1.67 1.56 1.48 1.46 1.59 1.73 1.84 1.96 2.02 2.20 2.30 2.44 3.03 3.46 3.12 2.82 2.52 2.22 2.20 2.41 2.40 2.03 1.82 1.82 1.97
0.44 0.48 0.49 0.52 0.54 0.56 0.63 0.68 0.83 1.03 1.27 1.46 1.71 2.00 1.97 1.85 1.75 1.69 1.65 1.60 1.59 1.55 1.55 1.73 1.78 1.79 1.88 2.02 2.36 2.63 2.94 3.20 3.24 3.23 3.00 2.69 2.41 2.07 2.37 2.45 2.11 1.97 1.92
0.45 0.55 0.63 0.74 0.82 0.87 1.04 1.24 1.45 1.58 1.66 1.77 1.90 2.01 1.98 1.98 1.92 1.72 1.62 1.59 1.65 1.71 1.71 1.76 1.78 1.75 1.80 1.93 2.18 2.50 2.73 3.06 3.31 3.28 3.08 2.95 2.82 2.55 2.49 2.38 2.23 2.24 2.09
0.50 0.66 0.85 0.99 1.14 1.31 1.48 1.61 1.75 1.89 1.82 1.78 1.82 1.86 1.85 1.82 1.82 1.74 1.66 1.59 1.58 1.64 1.67 1.73 1.85 1.91 1.96 2.09 2.28 2.45 2.40 2.59 3.02 3.06 2.93 2.87 2.70 2.64 2.71 2.65 2.34 2.20 1.94
0.68 0.80 0.89 1.03 1.21 1.42 1.52 1.53 1.60 1.72 1.70 1.65 1.63 1.61 1.65 1.65 1.60 1.52 1.49 1.53 1.62 1.60 1.54 1.57 1.66 1.77 1.95 2.02 2.10 2.16 2.13 2.23 2.48 2.59 2.79 2.91 2.71 2.62 2.53 2.52 2.59 2.35 2.05
0.95 1.11 1.24 1.37 1.43 1.50 1.60 1.50 1.50 1.56 1.57 1.52 1.47 1.50 1.49 1.54 1.53 1.44 1.44 1.43 1.43 1.35 1.25 1.26 1.32 1.39 1.47 1.57 1.73 1.84 1.94 2.01 2.13 2.26 2.41 2.58 2.71 2.67 2.51 2.50 2.51 2.51 2.31
1.19 1.50 1.78 1.96 1.80 1.57 1.51 1.49 1.42 1.43 1.53 1.54 1.48 1.46 1.54 1.54 1.50 1.48 1.42 1.39 1.40 1.31 1.21 1.16 1.11 1.10 1.07 1.12 1.32 1.51 1.62 1.72 1.88 2.06 2.20 2.26 2.33 2.55 2.56 2.43 2.45 2.39 2.26
1.35 1.52 1.75 1.95 1.88 1.58 1.34 1.38 1.45 1.47 1.49 1.49 1.49 1.47 1.46 1.37 1.34 1.36 1.33 1.30 1.30 1.34 1.30 1.20 1.13 1.21 1.19 1.15 1.22 1.26 1.32 1.39 1.54 1.68 1.81 1.97 2.23 2.55 2.62 2.59 2.49 2.41 2.30
1.28 1.28 1.34 1.41 1.50 1.40 1.20 1.15 1.30 1.42 1.42 1.40 1.43 1.41 1.30 1.22 1.21 1.20 1.12 1.00 0.94 0.94 1.05 1.18 1.10 1.07 1.09 1.11 1.18 1.19 1.24 1.28 1.38 1.48 1.61 1.80 2.09 2.44 2.66 2.77 2.66 2.52 2.41
1.32 1.29 1.19 1.11 1.15 1.16 1.11 1.07 1.21 1.37 1.45 1.43 1.31 1.20 1.13 1.11 1.14 1.07 0.99 0.92 0.81 0.75 0.77 0.87 0.87 0.96 1.05 1.08 1.11 1.14 1.21 1.26 1.32 1.46 1.52 1.58 1.80 2.01 2.20 2.39 2.52 2.50 2.51
1.07 1.04 0.99 0.90 0.87 0.91 0.96 1.00 1.14 1.23 1.37 1.50 1.40 1.26 1.16 1.13 1.12 1.07 1.03 0.94 0.88 0.84 0.84 0.95 0.99 0.95 0.94 0.99 1.08 1.12 1.11 1.15 1.20 1.27 1.34 1.41 1.47 1.66 1.82 1.93 2.14 2.36 2.62
0.72 0.77 0.81 0.77 0.69 0.66 0.64 0.74 0.90 1.06 1.26 1.50 1.49 1.34 1.28 1.25 1.13 1.07 1.06 1.02 1.01 0.94 0.92 0.99 1.09 1.14 1.10 1.08 1.15 1.12 1.11 1.14 1.14 1.18 1.16 1.21 1.26 1.35 1.55 1.60 1.82 2.14 2.43
0.52 0.59 0.65 0.71 0.61 0.52 0.51 0.52 0.63 0.84 1.01 1.21 1.29 1.26 1.18 1.07 1.05 1.06 1.03 0.97 0.94 0.89 0.82 0.81 0.86 0.95 1.01 1.31 1.26 1.06 1.00 1.05 1.11 1.15 1.13 1.16 1.12 1.09 1.19 1.33 1.46 1.75 1.99
0.38 0.42 0.46 0.54 0.57 0.51 0.48 0.50 0.56 0.66 0.80 0.97 1.07 1.05 0.98 0.89 0.90 0.95 0.92 0.87 0.81 0.81 0.76 0.74 0.69 0.72 0.92 1.09 0.91 0.88 0.87 0.99 1.10 1.19 1.23 1.18 1.11 1.14 1.13 1.18 1.20 1.26 1.48
0.35 0.37 0.42 0.45 0.45 0.47 0.48 0.48 0.48 0.52 0.58 0.68 0.76 0.79 0.80 0.77 0.79 0.81 0.82 0.86 0.82 0.74 0.70 0.72 0.76 0.76 0.83 0.96 0.80 0.76 0.78 0.98 1.12 1.14 1.10 1.18 1.20 1.24 1.28 1.19 1.24 1.17 1.18
0.25 0.24 0.27 0.30 0.33 0.35 0.38 0.40 0.44 0.47 0.47 0.49 0.53 0.57 0.61 0.65 0.71 0.73 0.76 0.88 0.89 0.82 0.78 0.86 0.90 0.84 0.81 0.92 0.85 0.85 0.88 1.01 1.11 1.09 1.13 1.23 1.28 1.47 1.51 1.36 1.39 1.34 1.30
0.15 0.16 0.15 0.17 0.22 0.27 0.29 0.33 0.39 0.44 0.45 0.45 0.47 0.52 0.53 0.57 0.65 0.74 0.77 0.75 0.73 0.76 0.82 0.83 0.78 0.76 0.84 0.98 0.92 0.96 1.03 1.13 1.24 1.22 1.25 1.52 1.50 1.53 1.47 1.34 1.47 1.43 1.28
0.14 0.14 0.14 0.16 0.20 0.28 0.32 0.33 0.38 0.41 0.43 0.48 0.48 0.50 0.52 0.54 0.58 0.59 0.59 0.63 0.68 0.66 0.66 0.65 0.68 0.72 0.85 0.93 0.98 1.12 1.14 1.18 1.33 1.33 1.32 1.31 1.51 1.46 1.40 1.38 1.35 1.46 1.36
0.14 0.14 0.15 0.17 0.18 0.23 0.32 0.37 0.42 0.42 0.43 0.44 0.44 0.42 0.42 0.42 0.44 0.47 0.46 0.47 0.56 0.63 0.65 0.69 0.72 0.72 0.77 0.83 0.89 1.00 1.09 1.15 1.30 1.38 1.26 1.16 1.44 1.41 1.33 1.23 1.25 1.42 1.46
0.16 0.16 0.17 0.22 0.26 0.23 0.29 0.37 0.43 0.46 0.44 0.42 0.38 0.40 0.39 0.38 0.36 0.38 0.43 0.47 0.49 0.53 0.55 0.61 0.69 0.78 0.78 0.79 0.91 0.93 0.98 1.09 1.24 1.30 1.32 1.29 1.32 1.25 1.18 1.28 1.31 1.34 1.33
0.15 0.19 0.24 0.26 0.31 0.31 0.33 0.37 0.42 0.44 0.42 0.37 0.34 0.37 0.39 0.38 0.36 0.35 0.39 0.41 0.42 0.44 0.48 0.54 0.59 0.64 0.72 0.76 0.90 1.00 1.00 1.08 1.14 1.17 1.22 1.19 1.13 1.13 1.12 1.17 1.27 1.30 1.36
0.15 0.19 0.27 0.29 0.30 0.35 0.40 0.42 0.41 0.38 0.39 0.36 0.34 0.32 0.38 0.39 0.37 0.35 0.37 0.40 0.43 0.51 0.56 0.57 0.59 0.58 0.59 0.68 0.86 1.03 1.11 1.23 1.37 1.39 1.24 1.14 1.09 1.06 1.04 1.07 1.12 1.18 1.20
0.16 0.21 0.26 0.29 0.31 0.34 0.39 0.41 0.39 0.33 0.33 0.35 0.34 0.32 0.31 0.33 0.36 0.38 0.36 0.40 0.44 0.54 0.59 0.60 0.60 0.59 0.64 0.67 0.68 0.78 0.99 1.22 1.53 1.77 1.65 1.56 1.40 1.27 1.15 1.10 1.06 1.03 1.04